Time,TemperatureF,DewpointF,PressureIn,WindDirection,WindDirectionDegrees,WindSpeedMPH,WindSpeedGustMPH,Humidity,HourlyPrecipIn,Conditions,Clouds,dailyrainin,SoftwareType,DateUTC
2014-01-26 00:22:00,9.0,-1.0,-100.00,SSE,160,16.0,21.0,62,-99.99,,,-99.99,,2014-01-26 05:22:00,
2014-01-26 00:52:00,9.0,-2.0,-100.00,SSE,165,14.0,17.0,60,-99.99,,,-99.99,,2014-01-26 05:52:00,
2014-01-26 01:22:00,8.0,-3.0,-100.00,SSE,160,15.0,18.0,61,-99.99,,,-99.99,,2014-01-26 06:22:00,
2014-01-26 01:52:00,8.0,-3.0,-100.00,SSE,160,12.0,16.0,61,-99.99,,,-99.99,,2014-01-26 06:52:00,
2014-01-26 02:22:00,5.0,-4.0,-100.00,SSE,150,9.0,13.0,62,-99.99,,,-99.99,,2014-01-26 07:22:00,
2014-01-26 02:53:00,5.0,-5.0,-100.00,SSE,150,11.0,14.0,63,-99.99,,,-99.99,,2014-01-26 07:53:00,
2014-01-26 03:22:00,6.0,-4.0,-100.00,SE,145,12.0,14.0,63,-99.99,,,-99.99,,2014-01-26 08:22:00,
2014-01-26 03:52:00,6.0,-4.0,-100.00,SE,140,11.0,14.0,63,-99.99,,,-99.99,,2014-01-26 08:52:00,
2014-01-26 04:21:00,6.0,-3.0,-100.00,SE,130,9.0,12.0,64,-99.99,,,-99.99,,2014-01-26 09:21:00,
2014-01-26 04:53:00,5.0,-4.0,-100.00,SE,125,9.0,13.0,66,-99.99,,,-99.99,,2014-01-26 09:53:00,
2014-01-26 05:53:00,6.0,-3.0,-100.00,SE,125,9.0,13.0,67,-99.99,,,-99.99,,2014-01-26 10:53:00,
2014-01-26 06:22:00,6.0,-3.0,-100.00,SE,130,11.0,15.0,66,-99.99,,,-99.99,,2014-01-26 11:22:00,
2014-01-26 06:52:00,7.0,-2.0,-100.00,SE,130,8.0,13.0,65,-99.99,,,-99.99,,2014-01-26 11:52:00,
2014-01-26 07:22:00,7.0,-2.0,-100.00,SE,125,9.0,13.0,64,-99.99,,,-99.99,,2014-01-26 12:22:00,
2014-01-26 07:52:00,8.0,-2.0,-100.00,SE,130,9.0,16.0,64,-99.99,,,-99.99,,2014-01-26 12:52:00,
2014-01-26 08:22:00,8.0,1.0,-100.00,ESE,120,11.0,16.0,74,-99.99,,,-99.99,,2014-01-26 13:22:00,
2014-01-26 08:52:00,7.0,2.0,-100.00,ESE,110,14.0,17.0,80,-99.99,,,-99.99,,2014-01-26 13:52:00,
2014-01-26 09:22:00,8.0,3.0,-100.00,ESE,105,11.0,15.0,81,-99.99,,,-99.99,,2014-01-26 14:22:00,
2014-01-26 09:52:00,8.0,4.0,-100.00,East,100,11.0,16.0,81,-99.99,,,-99.99,,2014-01-26 14:52:00,
2014-01-26 10:22:00,9.0,4.0,-100.00,ESE,110,14.0,19.0,81,-99.99,,,-99.99,,2014-01-26 15:22:00,
2014-01-26 10:53:00,10.0,5.0,-100.00,ESE,115,16.0,22.0,81,-99.99,,,-99.99,,2014-01-26 15:53:00,
2014-01-26 11:23:00,11.0,6.0,-100.00,ESE,120,15.0,21.0,79,-99.99,,,-99.99,,2014-01-26 16:23:00,
2014-01-26 11:53:00,12.0,8.0,-100.00,ESE,115,18.0,21.0,80,-99.99,,,-99.99,,2014-01-26 16:53:00,
2014-01-26 12:23:00,13.0,8.0,-100.00,ESE,115,18.0,24.0,80,-99.99,,,-99.99,,2014-01-26 17:23:00,
2014-01-26 12:52:00,15.0,9.0,-100.00,ESE,120,19.0,27.0,76,-99.99,,,-99.99,,2014-01-26 17:52:00,
2014-01-26 13:22:00,16.0,10.0,-100.00,ESE,115,18.0,24.0,74,-99.99,,,-99.99,,2014-01-26 18:22:00,
2014-01-26 13:53:00,18.0,11.0,-100.00,SE,125,17.0,24.0,71,-99.99,,,-99.99,,2014-01-26 18:53:00,
2014-01-26 14:22:00,19.0,11.0,-100.00,ESE,120,12.0,20.0,69,-99.99,,,-99.99,,2014-01-26 19:22:00,
2014-01-26 14:52:00,22.0,13.0,-100.00,ESE,115,10.0,16.0,66,-99.99,,,-99.99,,2014-01-26 19:52:00,
2014-01-26 15:53:00,28.0,17.0,-100.00,SE,125,15.0,21.0,62,-99.99,,,-99.99,,2014-01-26 20:53:00,
2014-01-26 16:54:00,31.0,21.0,-100.00,SE,130,12.0,20.0,65,-99.99,,,-99.99,,2014-01-26 21:54:00,
2014-01-26 17:23:00,32.0,23.0,-100.00,SE,145,16.0,20.0,68,-99.99,,,-99.99,,2014-01-26 22:23:00,
2014-01-26 17:52:00,33.0,25.0,-100.00,SSE,150,16.0,22.0,72,-99.99,,,-99.99,,2014-01-26 22:52:00,
2014-01-26 18:22:00,34.0,27.0,-100.00,SSE,150,16.0,24.0,74,-99.99,,,-99.99,,2014-01-26 23:22:00,
2014-01-26 18:53:00,35.0,28.0,-100.00,SSE,165,25.0,36.0,75,-99.99,,,-99.99,,2014-01-26 23:53:00,
2014-01-26 19:22:00,33.0,28.0,-100.00,South,170,21.0,25.0,78,-99.99,,,-99.99,,2014-01-27 00:22:00,
2014-01-26 19:52:00,32.0,27.0,-100.00,SSE,165,21.0,29.0,79,-99.99,,,-99.99,,2014-01-27 00:52:00,
2014-01-26 20:22:00,32.0,27.0,-100.00,SSE,150,17.0,21.0,80,-99.99,,,-99.99,,2014-01-27 01:22:00,
2014-01-26 20:52:00,33.0,28.0,-100.00,SSE,160,14.0,23.0,79,-99.99,,,-99.99,,2014-01-27 01:52:00,
2014-01-26 21:22:00,33.0,27.0,-100.00,SSE,160,11.0,17.0,79,-99.99,,,-99.99,,2014-01-27 02:22:00,
2014-01-26 21:53:00,33.0,28.0,-100.00,SE,135,9.0,14.0,81,-99.99,,,-99.99,,2014-01-27 02:53:00,
2014-01-26 22:22:00,31.0,27.0,-100.00,ESE,105,11.0,13.0,85,-99.99,,,-99.99,,2014-01-27 03:22:00,
2014-01-26 22:53:00,33.0,28.0,-100.00,ESE,120,10.0,14.0,81,-99.99,,,-99.99,,2014-01-27 03:53:00,
2014-01-26 23:23:00,38.0,29.0,-100.00,SE,130,12.0,22.0,71,-99.99,,,-99.99,,2014-01-27 04:23:00,
2014-01-26 23:52:00,39.0,29.0,-100.00,SE,135,15.0,26.0,67,-99.99,,,-99.99,,2014-01-27 04:52:00,